www.pogodaiklimat.ru

ПОГОДА в Головине, AK

  • Прогноз погоды в Головине
  • Монитор погоды в Головине
  • Климат в Головине

АРХИВ ПОГОДЫ в Головине

Время (UTC), дата Ветер
(напр.,м/с)
 
Видим.   Явления Облачность Т
(С)
Тd
(С)
f
(%)
Тe
(С)
Тes
(С)
Комфортность

P
(гПа)

Po
(гПа)
Тmin
(С)
Tmax
(С)
R
(мм)
SD
(см)
01:56 24.06 Ю  16 км    10/2 930 м
[средняя] 
+13.3  +10.0  80  +11  +13    1022.6  1021.9         
02:24 24.06 Ю  16 км    10/8 390 м
[средняя] 
+13.0  +9.0  77  +11  +12      1021.6         
02:31 24.06 Ю  16 км    10/2 390 м
[средняя] 
+13.0  +9.0  77  +11  +13      1021.6         
02:56 24.06 Ю  16 км    10/5 390 м
[средняя] 
+13.3  +10.0  80  +12  +13    1022.4  1021.6         
03:05 24.06 Ю  16 км    10/8 690 м
[средняя] 
+13.0  +9.0  77  +12  +12      1021.6         
03:53 24.06 Ю  16 км    5/5 690 м  +13.0  +10.0  82  +13  +15      1021.3         
03:56 24.06 Ю  16 км    2/2 690 м  +12.8  +10.0  83  +12  +16    1022.0  1021.3         
04:56 24.06   16 км    2/2 690 м  +12.8  +10.0  83  +12  +15    1022.0  1021.3  +11.7  +13.9     
05:56 24.06   16 км    8/8 630 м  +12.8  +10.0  83  +12  +13    1021.6  1020.9         
06:56 24.06   16 км    10/10 810 м  +12.8  +10.0  83  +12  +12    1021.8  1020.9         
07:17 24.06 С  16 км    10/10 390 м  +12.0  +10.0  88  +11  +11      1020.9         
07:56 24.06 СВ  16 км    10/10 450 м  +12.2  +10.0  86  +11  +11    1021.7  1020.9         
08:56 24.06   16 км    10/10 870 м  +11.7  +10.0  89  +11  +11    1021.7  1020.9         
09:56 24.06 СВ  16 км    10/10 600 м  +11.7  +10.0  89  +11  +11    1021.7  1020.9         
10:56 24.06 В  16 км    10/10 660 м  +11.7  +10.0  89  +10  +10    1021.6  1020.9  +11.1  +12.8     
11:56 24.06 В  16 км    10/10 720 м  +11.7  +9.4  86  +11  +11    1021.4  1020.6         
12:54 24.06   16 км    10/10 570 м  +11.0  +9.0  87  +10  +10      1020.6         
12:56 24.06   16 км    10/10 570 м  +11.1  +9.4  89  +10  +10    1021.3  1020.6         
13:16 24.06   16 км    10/10 570 м  +11.0  +9.0  87  +10  +10      1020.6         
13:56 24.06 СВ  16 км    10/10 570 м  +11.7  +8.9  83  +11  +11    1021.0  1020.2         
14:56 24.06 В  16 км    10/10 570 м  +11.7  +8.3  80  +11  +11    1020.8  1020.2         
16:56 24.06 В  13 км    10/10 510 м  +11.7  +7.8  77  +9  +9    1020.7  1019.9  +11.1  +12.2     
17:56 24.06 В  16 км    10/10 570 м  +12.2  +7.8  74  +10  +10    1020.7  1019.9         
18:56 24.06 В  16 км    10/10 570 м  +12.8  +7.8  72  +11  +11    1020.6  1019.9         
19:20 24.06 В  16 км    10/10 630 м  +13.0  +8.0  72  +12  +12      1019.9         
20:56 24.06 СВ  16 км    10/10 1110 м  +13.9  +8.3  69  +13  +13    1020.5  1019.6         
21:56 24.06 СЗ  16 км    10/10 1170 м  +15.0  +8.9  67  +15  +15    1020.0  1019.2         
22:56 24.06 З  16 км    10/10 900 м  +15.0  +9.4  69  +15  +15    1019.8  1018.9  +11.7  +15.6     
23:56 24.06 СЗ  16 км    10/10 1140 м  +15.0  +9.4  69  +15  +15    1019.4  1018.6         
00:56 25.06 нст  16 км    10/10 1050 м  +16.7  +10.0  65  +16  +16    1018.9  1018.2         
01:56 25.06 СЗ  16 км    2/2 1110 м  +17.2  +10.6  65  +17  +22    1018.2  1017.5         
03:56 25.06 Ю  16 км    8/8 1260 м  +16.1  +11.1  72  +15  +16    1017.4  1016.5         
04:56 25.06 Ю  16 км    10/10 1200 м  +15.6  +11.1  75  +15  +15    1017.4  1016.5  +14.4  +17.8     
05:56 25.06   16 км    2/2 1800 м  +15.0  +10.6  75  +15  +16    1017.3  1016.5         
06:56 25.06 З  16 км    5/5 1800 м  +14.4  +11.7  84  +13  +14    1017.4  1016.5         
07:56 25.06   16 км    5/5 1950 м  +13.9  +10.6  80  +14  +14    1017.2  1016.5         
08:56 25.06 СВ  16 км    ясно  +11.1  +10.0  93  +9  +9    1017.2  1016.5         
09:56 25.06 С  16 км    10/10 1650 м  +11.7  +7.2  74  +10  +10    1017.2  1016.5         
10:56 25.06 СЗ  16 км    10/10 1800 м  +11.7  +7.2  74  +10  +10    1017.2  1016.5  +10.6  +15.6     
11:56 25.06 С  16 км    10/10 1800 м  +11.7  +7.8  77  +10  +10    1017.1  1016.5         
12:56 25.06 С  13 км    ясно  +11.7  +6.7  71  +10  +10    1017.0  1016.2         
13:56 25.06 С  16 км    5/5 1950 м  +10.6  +6.1  74  +9  +9    1017.0  1016.2         
14:56 25.06 СЗ  16 км    5/5 1950 м  +12.2  +5.6  64  +11  +11    1016.9  1016.2         
15:56 25.06 СЗ  16 км    ясно  +12.8  +5.6  62  +12  +13    1017.0  1016.2         
16:56 25.06 СЗ  16 км    ясно  +16.1  +5.6  50  +16  +18    1017.0  1016.2  +10.6  +16.1     
17:56 25.06 СВ  16 км    8/8 1800 м  +16.7  +5.6  48  +17  +17    1016.9  1016.2         
18:56 25.06 нст  16 км    ясно  +16.1  +8.3  60  +16  +22    1016.7  1015.9         
19:56 25.06 Ю  16 км    ясно  +17.2  +7.8  54  +17  +25    1016.8  1016.2         

 

Местоположение метеостанции Golovin Airport: широта 64.5433 долгота -163.0394 высота над уровнем моря 8 м.

В архиве по умолчанию представлена погода в Головине за последние 1-2 суток. Обновление информации о фактической погоде в базе происходит ежечасно! Архивные данные за месяц целиком и за предыдущие месяцы Вы можете получить, выбрав интересующий диапазон дат из раскрывающегося списка и нажав кнопку "Ввод!".

Внимание! Архив погоды МЕТАР в базе сайта хранится не более 60 дней. Нет смысла пытаться выбрать более раннюю дату.

Внимание! Время в таблицах - всемирное. Для получения местного времени необходимо прибавить поправку, которая в Головине равна -9 ч.

Ветер - указаны скорость ветра в м/с и направление, откуда дует ветер: С - северный, СВ - северо-восточный, В - восточный, ЮВ - юго-восточный, Ю - южный, ЮЗ - юго-западный, З - западный, СЗ - северо-западный.
Видимость - горизонтальная дальность видимости в метрах или километрах. При видимости от 1 до 10 км при отсутствии осадков обычно наблюдается дымка, при ухудшении видимости до 1 км и менее - туман. В сухую погоду видимость может ухудшаться дымом, пылью или мглою.
Атмосферные явления - указаны явления, наблюдавшиеся в указанный момент времени.
Облачность - указаны через наклонную черту верхняя и нижняя облачность в баллах и высота нижней границы облаков в метрах. Внимание: облачность, как и прочие метеорологические величины в США измеряются автоматическими метеостанциями. Указанные значения в баллах носят условный характер и показывают процент времени, в течение которого, в среднем, лазерный луч высотомера отражался от облаков обратно.
T - Температура воздуха - температура, измеренная на высоте 2 м над землей.
Td - Температура точки росы - температура, при понижении до которой содержащийся в воздухе водяной пар достигнет насыщения.
f - Относительная влажность воздуха - влажноcть воздуха, измеренная на высоте 2 м над землей.
Te - Эффективная температура - температура, которую ощущает одетый по сезону человек в тени. Характеристика душности погоды. При расчете учитывается влияние влажности воздуха и скорости ветра на теплоощущения человека.
Tes - Эффективная температура на солнце - температура, которую ощущает человек, с поправкой на солнечный нагрев. Характеристика знойности погоды. Зависит от высоты солнца над горизонтом, облачности и скорости ветра. Ночью, в пасмурную погоду, а также при ветре 12 м/с и более поправка равна нулю.
P - Атмосферное давление - приведенное к уровню моря атмосферное давление.
Po - Атмосферное давление - измеренное на уровне метеостанции атмосферное давление.
Tmin - Минимальная температура - минимум температуры воздуха на высоте 2 м над землей.
Tmax - Максимальная температура - максимум температуры воздуха на высоте 2 м над землей.
R - Количество осадков - Количество выпавших осадков за 3 или 6 часов, мм.
SD - Снежный покров - Высота снежного покрова, см.